Location: Trout Lake
(45.9980°N, 121.5270°W)
Time: 20:57:35
(UTC-08:00)

Cosmos 1076 Rocket - Pass Details

Date: 06 December 2023
Orbit: 585 x 609 km, 82.5° (Epoch: 22 February)

Event Time Altitude Azimuth Distance (km) Brightness Sun altitude
Rises 16:50:51 0° 351° (N) 2,884 6.8 -5.3°
Reaches altitude 10° 16:53:05 10° 352° (N) 1,975 6.0 -5.7°
Maximum altitude 16:57:28 84° 81° (E) 619 3.5 -6.3°
Drops below altitude 10° 17:01:48 10° 170° (S) 1,952 6.3 -7.0°
Sets 17:03:59 0° 171° (S) 2,848 7.2 -7.4°
